Location: Beddau
(51.5575°N, 3.3561°W)
Time: 03:05:57
(UTC+00:00)

USA 234 - Pass Details

Date: 03 March 2021
Orbit: 1102 x 1105 km, 123.0° (Epoch: 13 April)

Event Time Altitude Azimuth Distance (km) Brightness Sun altitude
Exits shadow 21:27:18 82° 3° (N) 1,118 3.2 -31.9°
Maximum altitude 21:27:27 83° 335° (NNW) 1,116 3.2 -32.0°
Drops below altitude 10° 21:34:00 10° 248° (WSW) 2,960 5.8 -32.8°
Sets 21:36:29 0° 248° (WSW) 3,917 6.5 -33.1°
